Location: Aiyekoto
(8.4333°N, 4.3667°E)
Time: 23:29:10
(UTC+00:00)

ATLAS 5 CENTAUR R/B - Pass Details

Date: 10 October 2020
Orbit: 527 x 1131 km, 63.4° (Epoch: 28 October)

Event Time Altitude Azimuth Distance (km) Brightness Sun altitude
Rises 18:49:48 0° 243° (WSW) 2,689 6.0 -20.8°
Reaches altitude 10° 18:53:34 10° 280° (W) 1,762 5.0 -21.8°
Maximum altitude 18:54:42 11° 297° (WNW) 1,694 4.6 -22.0°
Drops below altitude 10° 18:55:50 10° 314° (NW) 1,761 4.4 -22.3°
Sets 18:59:36 0° 351° (N) 2,685 4.9 -23.2°
